Location: Lane
(33.5226°N, 79.8788°W)
Time: 19:08:24
(UTC+00:00)

Courier 1B Rocket - Pass Details

Date: 08 October 2022
Orbit: 920 x 1202 km, 28.3° (Epoch: 01 December)

Event Time Altitude Azimuth Distance (km) Brightness Sun altitude
Rises 19:33:34 0° 211° (SSW) 4,060 9.1 37.3°
Reaches altitude 10° 19:37:24 10° 195° (SSW) 3,068 8.5 36.7°
Maximum altitude 19:42:24 19° 153° (SSE) 2,411 7.4 35.9°
Drops below altitude 10° 19:47:14 10° 111° (ESE) 2,955 7.4 35.1°
Sets 19:50:49 0° 95° (E) 3,859 7.8 34.6°
